"2009-07-07 00:00:00",1039982,8.69,327.6,4.754,0.509,18.31,108.8545,21.95,23,27.42,0,111,13.17,22.78,289.6
"2009-07-07 00:00:30",1039983,9.09,326.7,3.791,0.701,18.43,108.849,21.94,23,26.92,0,111,13.17,22.77,288.7
"2009-07-07 00:01:00",1039984,7.663,333.6,5.128,0.528,18.25,108.845,21.93,22.99,27.42,0,111,13.17,22.76,295.6
"2009-07-07 00:01:30",1039985,7.714,329.1,5.629,1.043,18.04,108.8386,21.91,23,28.61,0,111,13.17,22.74,291.1
"2009-07-07 00:02:00",1039986,9.83,319.9,1.837,0.548,18.65,108.8362,21.91,22.98,26.64,0,111,13.17,22.73,281.9
"2009-07-07 00:02:30",1039987,9.11,321.4,2.512,0.466,18.28,108.8347,21.9,22.97,26.89,0,111,13.17,22.73,283.4
"2009-07-07 00:03:00",1039988,7.91,320.2,2.434,0.744,18.08,108.8323,21.9,22.95,27.83,0,111,13.17,22.72,282.2
"2009-07-07 00:03:30",1039989,7.027,326.6,5.121,0.667,17.89,108.8216,21.87,22.95,30.25,0,111,13.17,22.70,288.6
"2009-07-07 00:04:00",1039990,8.75,322.9,3.3,1.149,18.52,108.805,21.83,22.93,29.17,0,111.1,13.17,22.65,284.9
"2009-07-07 00:04:30",1039991,8.79,322.4,5.004,0.569,18.71,108.8025,21.82,22.93,26.46,0,111,13.17,22.65,284.4
"2009-07-07 00:05:00",1039992,7.488,329,4.778,0.485,18.3,108.8022,21.82,22.91,27.02,0,111,13.17,22.65,291.0
"2009-07-07 00:05:30",1039993,8.2,326.3,7.576,0.687,18.47,108.8013,21.82,22.89,27.5,0,111,13.17,22.64,288.3
"2009-07-07 00:06:00",1039994,7.614,328.1,3.091,0.29,18.47,108.8003,21.81,22.89,26.89,0,111.1,13.17,22.64,290.1
"2009-07-07 00:06:30",1039995,7.847,326.7,1.477,0.395,18.66,108.801,21.82,22.86,26.47,0,111,13.17,22.64,288.7
"2009-07-07 00:07:00",1039996,7.73,329.4,3.911,0.336,18.52,108.7992,21.81,22.86,26.35,0,111,13.17,22.64,291.4
"2009-07-07 00:07:30",1039997,7.997,327.7,3.648,0.423,18.54,108.7955,21.8,22.85,26.33,0,111,13.16,22.63,289.7
"2009-07-07 00:08:00",1039998,7.539,331.8,4.943,0.444,18.47,108.7896,21.79,22.84,26.48,0,111,13.16,22.61,293.8
"2009-07-07 00:08:30",1039999,6.986,332.9,2.804,0.57,18.41,108.7885,21.78,22.83,26.65,0,111,13.16,22.61,294.9
"2009-07-07 00:09:00",1040000,7.3,331.1,1.859,0.332,18.47,108.7899,21.79,22.82,26.48,0,111,13.16,22.61,293.1
"2009-07-07 00:09:30",1040001,7.187,335,2.445,0.217,18.44,108.791,21.79,22.82,26.34,0,111,13.16,22.62,297.0
"2009-07-07 00:10:00",1040002,6.569,336.1,2.009,0.311,18.27,108.7944,21.8,22.82,26.78,0,111,13.17,22.63,298.1
"2009-07-07 00:10:30",1040003,6.703,338.5,3.444,0.358,18.36,108.798,21.81,22.83,26.63,0,111,13.17,22.64,300.5
"2009-07-07 00:11:00",1040004,6.798,336.9,2.578,0.269,18.46,108.7997,21.81,22.83,26.39,0,111,13.17,22.64,298.9
"2009-07-07 00:11:30",1040005,6.998,340.1,3.262,0.275,18.58,108.7997,21.81,22.82,25.97,0,111,13.17,22.64,302.1
"2009-07-07 00:12:00",1040006,6.908,338.8,4.221,0.204,18.7,108.7997,21.81,22.83,25.82,0,111,13.17,22.64,300.8
"2009-07-07 00:12:30",1040007,6.141,341.8,5.88,0.474,18.63,108.7997,21.81,22.83,25.55,0,111,13.17,22.64,303.8
"2009-07-07 00:13:00",1040008,5.628,345.2,2.935,0.287,18.47,108.7997,21.81,22.84,25.91,0,111,13.17,22.64,307.2
"2009-07-07 00:13:30",1040009,5.654,338.8,3.539,0.33,18.54,108.8003,21.81,22.84,25.71,0,111,13.17,22.64,300.8
"2009-07-07 00:14:00",1040010,5.448,344.3,4.48,0.456,18.55,108.8048,21.82,22.84,25.6,0,111,13.17,22.65,306.3
"2009-07-07 00:14:30",1040011,5.323,343.1,2.658,0.177,18.45,108.8186,21.86,22.85,25.61,0,111,13.17,22.69,305.1
"2009-07-07 00:15:00",1040012,5.538,343.4,3.099,0.377,18.49,108.8298,21.89,22.86,25.62,0,111,13.17,22.72,305.4
"2009-07-07 00:15:30",1040013,5.998,336,3.265,0.334,18.56,108.8334,21.9,22.88,25.38,0,111,13.17,22.73,298.0
"2009-07-07 00:16:00",1040014,5.997,326.8,4.948,0.579,18.59,108.8334,21.9,22.88,25.34,0,111,13.17,22.73,288.8
"2009-07-07 00:16:30",1040015,5.953,336.1,4.593,0.428,18.54,108.836,21.9,22.9,25.3,0,111,13.17,22.73,298.1
"2009-07-07 00:17:00",1040016,5.894,340,6.765,0.462,18.55,108.8455,21.93,22.91,25.34,0,111,13.17,22.76,302.0
"2009-07-07 00:17:30",1040017,5.607,333.2,7,0.318,18.61,108.8629,21.97,22.92,25.26,0,111,13.17,22.80,295.2
"2009-07-07 00:18:00",1040018,6.289,334.8,2.877,0.515,18.64,108.8669,21.98,22.93,25.2,0,111,13.17,22.81,296.8
"2009-07-07 00:18:30",1040019,5.775,334.1,3.183,0.304,18.67,108.8666,21.98,22.94,25.18,0,111.1,13.17,22.81,296.1
"2009-07-07 00:19:00",1040020,4.824,332.4,4.97,0.453,18.47,108.8719,22,22.98,25.21,0,111.1,13.17,22.83,294.4
"2009-07-07 00:19:30",1040021,4.977,332.5,3.59,0.693,18.48,108.8839,22.03,22.98,25.23,0,111,13.16,22.86,294.5
"2009-07-07 00:20:00",1040022,5.061,336.7,2.808,0.196,18.49,108.8975,22.06,22.99,25.19,0,111,13.16,22.89,298.7
"2009-07-07 00:20:30",1040023,5.49,331.9,3.768,0.301,18.64,108.8954,22.06,23.02,25.08,0,111,13.16,22.89,293.9
"2009-07-07 00:21:00",1040024,5.323,326.2,1.163,0.232,18.66,108.8989,22.07,23.03,25.03,0,111,13.16,22.90,288.2
"2009-07-07 00:21:30",1040025,5.148,325.7,1.489,0.258,18.7,108.9193,22.12,23.06,24.91,0,111,13.17,22.95,287.7
"2009-07-07 00:22:00",1040026,5.408,329.4,2.838,0.242,18.58,108.9257,22.14,23.06,24.91,0,111,13.16,22.96,291.4
"2009-07-07 00:22:30",1040027,5.495,331.7,2.641,0.177,18.6,108.9268,22.14,23.11,24.87,0,111,13.16,22.97,293.7
"2009-07-07 00:23:00",1040028,5.653,325.4,2.308,0.217,18.84,108.9416,22.18,23.11,24.76,0,111,13.16,23.01,287.4
"2009-07-07 00:23:30",1040029,5.421,323.3,1.848,0.143,18.95,108.9552,22.21,23.13,24.45,0,111,13.16,23.04,285.3
"2009-07-07 00:24:00",1040030,4.867,327.9,2.259,0.251,18.68,108.9512,22.2,23.16,24.45,0,111,13.16,23.03,289.9
"2009-07-07 00:24:30",1040031,4.521,329.2,2.199,0.406,18.51,108.9543,22.21,23.17,24.64,0,111,13.16,23.04,291.2
"2009-07-07 00:25:00",1040032,4.249,328.6,7.284,0.584,18.53,108.9675,22.24,23.2,24.57,0,111,13.15,23.07,290.6
"2009-07-07 00:25:30",1040033,4.936,334.9,3.313,0.307,18.49,108.9665,22.24,23.23,24.57,0,111.1,13.15,23.07,296.9
"2009-07-07 00:26:00",1040034,4.814,332.9,2.695,0.422,18.5,108.979,22.27,23.25,24.65,0,111.1,13.15,23.10,294.9
"2009-07-07 00:26:30",1040035,5.187,333.3,2.883,0.299,18.6,108.9967,22.32,23.28,24.48,0,111.1,13.15,23.15,295.3
"2009-07-07 00:27:00",1040036,4.489,335.7,3.269,0.366,18.47,108.999,22.32,23.3,24.54,0,111.1,13.16,23.15,297.7
"2009-07-07 00:27:30",1040037,4.519,336.8,3.002,0.391,18.46,109.0116,22.36,23.33,24.55,0,111.1,13.16,23.19,298.8
"2009-07-07 00:28:00",1040038,4.452,338.6,2.17,0.228,18.46,109.0321,22.41,23.36,24.55,0,111.1,13.16,23.24,300.6
"2009-07-07 00:28:30",1040039,4.766,338,4.605,0.192,18.73,109.0327,22.41,23.39,24.49,0,111.1,13.16,23.24,300.0
"2009-07-07 00:29:00",1040040,4.839,336,2.753,0.112,18.87,109.0465,22.45,23.41,24.5,0,111.1,13.16,23.28,298.0
"2009-07-07 00:29:30",1040041,4.648,338.1,3.127,0.123,18.98,109.063,22.49,23.43,24.47,0,111.1,13.16,23.32,300.1
"2009-07-07 00:30:00",1040042,4.558,341,2.925,0.176,19.07,109.0664,22.5,23.47,24.47,0,111.1,13.16,23.33,303.0
"2009-07-07 00:30:30",1040043,4.957,332.8,1.985,0.17,19.21,109.0664,22.5,23.48,24.38,0,111.1,13.16,23.33,294.8
"2009-07-07 00:31:00",1040044,4.182,337.2,3.822,0.311,19.22,109.0667,22.5,23.49,24.37,0,111.1,13.16,23.33,299.2
"2009-07-07 00:31:30",1040045,3.536,348.2,5.45,0.357,19.29,109.0672,22.5,23.51,24.37,0,111.1,13.16,23.33,310.2
"2009-07-07 00:32:00",1040046,3.98,347.1,3.173,0.442,19.18,109.0686,22.5,23.52,24.36,0,111.1,13.16,23.33,309.1
"2009-07-07 00:32:30",1040047,3.299,349.9,4.704,0.479,19.18,109.0703,22.51,23.52,24.4,0,111.1,13.16,23.34,311.9
"2009-07-07 00:33:00",1040048,2.933,355.8,6.089,0.579,19.14,109.0698,22.51,23.54,24.4,0,111.1,13.16,23.34,317.8
"2009-07-07 00:33:30",1040049,2.595,356.2,3.241,0.45,19.06,109.0664,22.5,23.55,24.45,0,111.1,13.16,23.33,318.2
"2009-07-07 00:34:00",1040050,2.237,11.41,7.403,0.744,18.85,109.0664,22.5,23.54,24.65,0,111.1,13.16,23.33,333.4
"2009-07-07 00:34:30",1040051,3.089,19.59,7.884,0.446,18.74,109.0664,22.5,23.53,24.98,0,111.1,13.16,23.33,341.6
"2009-07-07 00:35:00",1040052,3.422,25.97,12.45,0.507,18.74,109.0664,22.5,23.54,25.1,0,111.1,13.16,23.33,348.0
"2009-07-07 00:35:30",1040053,2.765,27.67,12.91,0.447,18.59,109.0664,22.5,23.53,27.87,0,111.1,13.16,23.33,349.7
"2009-07-07 00:36:00",1040054,2.89,28.46,10.42,0.532,18.52,109.0664,22.5,23.54,28.51,0,111.1,13.16,23.33,350.5
"2009-07-07 00:36:30",1040055,2.966,16.71,7.233,0.673,18.61,109.0656,22.49,23.53,26.19,0,111.1,13.16,23.32,338.7
"2009-07-07 00:37:00",1040056,3.486,25.6,7.221,0.695,18.41,109.0639,22.49,23.52,26.33,0,111.1,13.16,23.32,347.6
"2009-07-07 00:37:30",1040057,3.113,19.52,4.742,0.452,18.69,109.063,22.49,23.52,26.6,0,111.1,13.16,23.32,341.5
"2009-07-07 00:38:00",1040058,3.366,21.62,6.229,0.548,18.76,109.0568,22.47,23.5,26.74,0,111.1,13.16,23.30,343.6
"2009-07-07 00:38:30",1040059,3.883,24.12,5.563,0.471,18.75,109.0507,22.46,23.5,27.27,0,111.1,13.16,23.29,346.1
"2009-07-07 00:39:00",1040060,3.484,23.96,3.331,0.247,18.85,109.0442,22.44,23.5,26.98,0,111.1,13.16,23.27,346.0
"2009-07-07 00:39:30",1040061,3.487,24.5,4.44,0.473,18.93,109.0355,22.42,23.5,26.65,0,111.1,13.15,23.25,346.5
"2009-07-07 00:40:00",1040062,3.717,19.38,4.753,0.485,19.1,109.0327,22.41,23.5,25.92,0,111.1,13.15,23.24,341.4
"2009-07-07 00:40:30",1040063,2.994,15.87,4.72,0.674,18.99,109.0327,22.41,23.47,25.48,0,111.1,13.15,23.24,337.9
"2009-07-07 00:41:00",1040064,2.547,18.1,6.321,0.721,18.87,109.033,22.41,23.46,25.45,0,111.1,13.15,23.24,340.1
"2009-07-07 00:41:30",1040065,2.827,17.21,4.279,0.751,18.72,109.0333,22.41,23.48,25.39,0,111.1,13.15,23.24,339.2
"2009-07-07 00:42:00",1040066,2.786,15.69,3.866,0.519,18.7,109.0336,22.41,23.48,25.33,0,111.1,13.15,23.24,337.7
"2009-07-07 00:42:30",1040067,2.19,7.928,4.579,0.291,18.81,109.0333,22.41,23.47,25.05,0,111.1,13.15,23.24,329.9
"2009-07-07 00:43:00",1040068,2.104,4.384,2.872,0.27,18.75,109.0339,22.41,23.47,24.88,0,111.1,13.15,23.24,326.4
"2009-07-07 00:43:30",1040069,2.11,4.644,4.522,0.237,18.65,109.0333,22.41,23.49,24.83,0,111.1,13.15,23.24,326.6
"2009-07-07 00:44:00",1040070,2.403,16.88,4.492,0.294,18.39,109.0409,22.43,23.48,24.91,0,111.1,13.15,23.26,338.9
"2009-07-07 00:44:30",1040071,2.549,20.16,2.936,0.335,18.3,109.0583,22.48,23.48,24.99,0,111.1,13.16,23.31,342.2
"2009-07-07 00:45:00",1040072,3.034,21.17,2.298,0.229,18.3,109.0661,22.5,23.5,25.02,0,111.1,13.16,23.33,343.2
"2009-07-07 00:45:30",1040073,3.228,20.35,4.216,0.239,18.31,109.0667,22.5,23.5,24.95,0,111.1,13.16,23.33,342.4
"2009-07-07 00:46:00",1040074,3.094,22.73,2.55,0.156,18.3,109.0757,22.52,23.53,25.04,0,111.1,13.16,23.35,344.7
"2009-07-07 00:46:30",1040075,2.526,21.58,3.71,0.268,18.32,109.0962,22.57,23.56,25.19,0,111.1,13.16,23.40,343.6
"2009-07-07 00:47:00",1040076,2.351,18.44,4.412,0.43,18.36,109.1004,22.58,23.57,25.14,0,111.1,13.16,23.41,340.4
"2009-07-07 00:47:30",1040077,2.194,25.01,2.796,0.167,18.33,109.1102,22.61,23.59,25,0,111.1,13.16,23.44,347.0
"2009-07-07 00:48:00",1040078,2.711,26.04,5.37,0.453,18.26,109.1293,22.66,23.61,24.95,0,111.1,13.16,23.49,348.0
"2009-07-07 00:48:30",1040079,3.176,44.57,4.602,0.199,18.15,109.1377,22.68,23.65,25.05,0,111.1,13.16,23.51,6.6
"2009-07-07 00:49:00",1040080,3.152,40.9,1.888,0.172,18.22,109.1653,22.75,23.68,25.03,0,111.1,13.16,23.58,2.9
"2009-07-07 00:49:30",1040081,3.112,43.58,1.147,0.126,18.26,109.1703,22.76,23.72,25,0,111.1,13.16,23.59,5.6
"2009-07-07 00:50:00",1040082,3.216,42.54,1.87,0.218,18.26,109.195,22.83,23.75,24.95,0,111.1,13.16,23.66,4.5
"2009-07-07 00:50:30",1040083,2.819,49.35,4.25,0.165,18.31,109.2018,22.84,23.77,24.89,0,111.1,13.16,23.68,11.3
"2009-07-07 00:51:00",1040084,2.691,66.99,7.308,0.25,17.95,109.2189,22.89,23.81,26.65,0,111.1,13.16,23.72,29.0
"2009-07-07 00:51:30",1040085,2.306,69.02,3.405,0.314,18.11,109.2346,22.93,23.86,29.59,0,111.1,13.16,23.76,31.0
"2009-07-07 00:52:00",1040086,3.005,91.9,17.67,0.858,18.17,109.2369,22.93,23.89,27.38,0,111.1,13.16,23.77,53.9
"2009-07-07 00:52:30",1040087,4.255,102.4,6.76,0.497,18.14,109.2436,22.95,23.91,27.57,0,111.1,13.16,23.78,64.4
"2009-07-07 00:53:00",1040088,5.224,99.7,12.11,0.562,18.17,109.2414,22.95,23.94,28.16,0,111.1,13.16,23.78,61.7
"2009-07-07 00:53:30",1040089,4.974,124.4,4.891,0.633,17.9,109.2346,22.93,23.93,30.2,0,111.1,13.16,23.76,86.4
"2009-07-07 00:54:00",1040090,5.188,123.8,3.99,0.284,17.33,109.2226,22.9,23.92,35.28,0,111.1,13.16,23.73,85.8
"2009-07-07 00:54:30",1040091,3.932,134.4,6.632,0.864,17.37,109.2023,22.85,23.9,36.22,0,111.1,13.16,23.68,96.4
"2009-07-07 00:55:00",1040092,6.134,145,6.481,1.757,17.07,109.1785,22.78,23.87,36.73,0,111.1,13.16,23.62,107.0
"2009-07-07 00:55:30",1040093,6.647,147.7,5.405,0.64,16.78,109.1419,22.69,23.85,37.68,0,111.1,13.16,23.52,109.7
"2009-07-07 00:56:00",1040094,7.442,149.6,4.705,0.738,17.02,109.1035,22.59,23.78,37.35,0,111.1,13.16,23.42,111.6
"2009-07-07 00:56:30",1040095,8.36,146.1,6.13,0.591,17.62,109.065,22.49,23.72,36.09,0,111.1,13.15,23.32,108.1
"2009-07-07 00:57:00",1040096,8.74,149,6.106,0.8,17.46,109.0161,22.37,23.64,35.22,0,111.1,13.15,23.20,111.0
"2009-07-07 00:57:30",1040097,7.039,160.1,2.947,0.351,17.35,108.9526,22.2,23.56,37.58,0,111.1,13.15,23.03,122.1
"2009-07-07 00:58:00",1040098,7.391,156.9,4.501,0.951,17.44,108.8925,22.05,23.49,37.36,0,111.1,13.15,22.88,118.9
"2009-07-07 00:58:30",1040099,9.14,148.6,2.686,0.212,17.65,108.8372,21.91,23.36,35.62,0,111.1,13.15,22.74,110.6
"2009-07-07 00:59:00",1040100,8.88,149.9,2.736,0.188,17.83,108.7867,21.78,23.27,35.26,0,111.1,13.15,22.61,111.9
"2009-07-07 00:59:30",1040101,9.59,150.6,2.902,0.382,18.35,108.731,21.64,23.14,33.66,0,111.1,13.15,22.46,112.6
"2009-07-07 01:00:00",1040102,9.05,146.3,2.3,0.47,18.19,108.6847,21.52,23,34.49,0,111.1,13.15,22.34,108.3
"2009-07-07 01:00:30",1040103,8.91,142.9,2.654,0.268,17.98,108.6468,21.42,22.9,36.42,0,111.1,13.15,22.25,104.9
"2009-07-07 01:01:00",1040104,9.37,147.8,3.733,0.151,18.04,108.6072,21.32,22.79,36.61,0,111.1,13.15,22.14,109.8
"2009-07-07 01:01:30",1040105,9.19,152.7,3.844,0.389,18.34,108.5715,21.23,22.69,35.83,0,111.1,13.15,22.05,114.7
"2009-07-07 01:02:00",1040106,9.31,152.8,1.953,0.355,18.06,108.5325,21.13,22.59,36.11,0,111.1,13.16,21.95,114.8
"2009-07-07 01:02:30",1040107,9.25,151.9,5.523,0.615,18.12,108.4957,21.03,22.5,36.63,0,111.1,13.16,21.86,113.9
"2009-07-07 01:03:00",1040108,8.91,155.7,2.348,0.391,18.27,108.4538,20.92,22.41,36.9,0,111.1,13.16,21.75,117.7
"2009-07-07 01:03:30",1040109,8.61,150.8,3.05,0.291,18.18,108.4148,20.82,22.29,37.32,0,111,13.16,21.65,112.8
"2009-07-07 01:04:00",1040110,8.23,147.8,2.562,0.284,18.19,108.3842,20.75,22.22,38.08,0,111,13.16,21.57,109.8
"2009-07-07 01:04:30",1040111,7.331,136,4.731,0.991,18.56,108.3543,20.67,22.13,36.39,0,111,13.16,21.49,98.0
"2009-07-07 01:05:00",1040112,7.341,140.4,1.797,0.413,18.24,108.3264,20.6,22.04,37.53,0,111,13.16,21.42,102.4
"2009-07-07 01:05:30",1040113,7.458,146.8,2.488,0.169,18.06,108.3072,20.55,21.98,38,0,111,13.16,21.37,108.8
"2009-07-07 01:06:00",1040114,7.218,146.4,2.452,0.322,18.06,108.2895,20.5,21.9,38.22,0,111,13.16,21.33,108.4
"2009-07-07 01:06:30",1040115,6.966,157.9,4.808,0.469,18.34,108.2796,20.48,21.82,37.89,0,111,13.16,21.30,119.9
"2009-07-07 01:07:00",1040116,6.478,148.1,1.708,0.393,18.31,108.2525,20.41,21.75,37.34,0,111,13.16,21.23,110.1
"2009-07-07 01:07:30",1040117,5.451,147.4,4.152,0.302,18.45,108.2399,20.38,21.68,36.66,0,111,13.16,21.20,109.4
"2009-07-07 01:08:00",1040118,5.033,158,2.715,0.223,18.31,108.22,20.32,21.63,37.06,0,111,13.16,21.15,120.0
"2009-07-07 01:08:30",1040119,5.337,167.4,3.312,0.24,18.39,108.2178,20.32,21.6,37.53,0,111,13.16,21.14,129.4
"2009-07-07 01:09:00",1040120,4.798,164.5,6.229,0.449,18.45,108.2169,20.32,21.55,36.86,0,111,13.17,21.14,126.5
"2009-07-07 01:09:30",1040121,5.807,154.6,4.09,0.37,18.33,108.201,20.28,21.5,36.64,0,111,13.16,21.10,116.6
"2009-07-07 01:10:00",1040122,5.037,149.7,5.175,0.533,18.68,108.1926,20.25,21.47,35.39,0,111,13.17,21.08,111.7
"2009-07-07 01:10:30",1040123,4.245,140,3.287,0.358,18.83,108.1931,20.25,21.44,32.72,0,111,13.17,21.08,102.0
"2009-07-07 01:11:00",1040124,4.245,141.8,2.495,0.26,18.25,108.197,20.27,21.41,35.03,0,111,13.17,21.09,103.8
"2009-07-07 01:11:30",1040125,3.874,151.5,4.988,0.471,18.29,108.2013,20.28,21.39,35.96,0,111,13.17,21.10,113.5
"2009-07-07 01:12:00",1040126,4.981,152.8,4.817,0.442,18.15,108.2086,20.29,21.4,36.62,0,111,13.17,21.12,114.8
"2009-07-07 01:12:30",1040127,5.175,151,3.235,0.265,18.1,108.224,20.33,21.38,37.52,0,111,13.17,21.16,113.0
"2009-07-07 01:13:00",1040128,4.943,144.9,2.049,0.134,18.06,108.2266,20.34,21.38,37.7,0,111,13.17,21.16,106.9
"2009-07-07 01:13:30",1040129,4.388,142.8,4.871,0.305,18.21,108.2263,20.34,21.39,37.49,0,111,13.16,21.16,104.8
"2009-07-07 01:14:00",1040130,4.072,144,3.03,0.194,18.2,108.2266,20.34,21.39,36.57,0,111,13.16,21.16,106.0
"2009-07-07 01:14:30",1040131,3.722,143.6,3.096,0.158,18.2,108.2268,20.34,21.4,37,0,111,13.16,21.16,105.6
"2009-07-07 01:15:00",1040132,4.43,142,3.005,0.282,18.03,108.2325,20.36,21.4,37.19,0,111,13.16,21.18,104.0
"2009-07-07 01:15:30",1040133,4.636,141.4,2.324,0.137,18.1,108.2403,20.38,21.39,37.54,0,110.9,13.16,21.20,103.4
"2009-07-07 01:16:00",1040134,4.72,139.2,2.537,0.168,17.9,108.2566,20.42,21.41,37.83,0,110.9,13.16,21.24,101.2
"2009-07-07 01:16:30",1040135,4.857,145,2.718,0.239,17.74,108.2603,20.43,21.4,38.8,0,110.9,13.16,21.25,107.0
"2009-07-07 01:17:00",1040136,4.937,142.3,1.124,0.219,17.89,108.2603,20.43,21.42,38.68,0,110.9,13.16,21.25,104.3
"2009-07-07 01:17:30",1040137,4.938,146.2,2.077,0.262,18.12,108.2603,20.43,21.41,37.95,0,110.9,13.16,21.25,108.2
"2009-07-07 01:18:00",1040138,4.643,147.3,3.731,0.143,17.63,108.2603,20.43,21.43,38.73,0,110.9,13.16,21.25,109.3
"2009-07-07 01:18:30",1040139,4.694,148.8,4.466,0.182,17.76,108.2603,20.43,21.44,39.01,0,110.9,13.16,21.25,110.8
"2009-07-07 01:19:00",1040140,4.565,146,5.12,0.376,17.83,108.26,20.43,21.43,38.97,0,110.9,13.17,21.25,108.0
"2009-07-07 01:19:30",1040141,4.321,144.5,2.263,0.188,17.95,108.2535,20.41,21.44,38.45,0,110.9,13.17,21.23,106.5
"2009-07-07 01:20:00",1040142,4.618,147.7,3.179,0.13,17.89,108.24,20.38,21.42,38.51,0,110.9,13.17,21.20,109.7
"2009-07-07 01:20:30",1040143,4.273,145.9,3.575,0.205,18.01,108.233,20.36,21.42,38.39,0,110.9,13.17,21.18,107.9
"2009-07-07 01:21:00",1040144,4.367,151.1,2.925,0.265,18.03,108.2274,20.34,21.41,38.1,0,110.9,13.18,21.17,113.1
"2009-07-07 01:21:30",1040145,4.168,152.7,2.603,0.267,18.23,108.2266,20.34,21.41,37.66,0,110.9,13.18,21.16,114.7
"2009-07-07 01:22:00",1040146,4.159,151.8,1.927,0.18,18.29,108.2275,20.34,21.4,36.99,0,110.9,13.18,21.17,113.8
"2009-07-07 01:22:30",1040147,4.061,151.5,2.868,0.118,18.36,108.2272,20.34,21.39,36.72,0,110.9,13.18,21.17,113.5
"2009-07-07 01:23:00",1040148,3.752,144,2.416,0.227,18.56,108.2296,20.35,21.39,35.25,0,110.9,13.18,21.17,106.0
"2009-07-07 01:23:30",1040149,3.894,147,3.376,0.195,18.08,108.2281,20.34,21.39,36.1,0,110.9,13.18,21.17,109.0
"2009-07-07 01:24:00",1040150,3.394,149.9,6.407,0.314,18.23,108.2287,20.35,21.38,36.76,0,110.9,13.18,21.17,111.9
"2009-07-07 01:24:30",1040151,3.007,152.4,4.607,0.156,18.46,108.2287,20.35,21.37,35.48,0,110.9,13.18,21.17,114.4
"2009-07-07 01:25:00",1040152,3.163,143,2.296,0.281,18.6,108.2299,20.35,21.37,34.35,0,110.9,13.18,21.17,105.0
"2009-07-07 01:25:30",1040153,3.136,155.1,3.375,0.187,18.61,108.2296,20.35,21.38,33.64,0,110.9,13.18,21.17,117.1
"2009-07-07 01:26:00",1040154,3.406,154.3,2.845,0.109,18.34,108.2347,20.36,21.39,34.44,0,110.9,13.18,21.18,116.3
"2009-07-07 01:26:30",1040155,3.37,150.8,1.999,0.121,18.34,108.2405,20.38,21.39,35.09,0,110.9,13.18,21.20,112.8
"2009-07-07 01:27:00",1040156,3.228,154.9,2.141,0.171,18.46,108.2591,20.42,21.38,34.46,0,110.9,13.18,21.25,116.9
"2009-07-07 01:27:30",1040157,3.068,151.3,4.599,0.211,18.48,108.2655,20.44,21.4,34.32,0,110.9,13.18,21.26,113.3
"2009-07-07 01:28:00",1040158,2.823,149.6,3.948,0.256,18.46,108.2658,20.44,21.44,33.53,0,110.9,13.18,21.26,111.6
"2009-07-07 01:28:30",1040159,2.755,153.4,3.274,0.156,18.47,108.2656,20.44,21.43,33.53,0,110.9,13.18,21.26,115.4
"2009-07-07 01:29:00",1040160,2.851,154.7,2.632,0.135,18.35,108.278,20.47,21.46,34,0,110.9,13.18,21.30,116.7
"2009-07-07 01:29:30",1040161,2.931,158.9,1.938,0.097,18.39,108.2976,20.52,21.46,33.69,0,110.9,13.18,21.35,120.9
"2009-07-07 01:30:00",1040162,3.067,159.4,1.756,0.124,18.37,108.2995,20.53,21.48,33.99,0,110.9,13.18,21.35,121.4
"2009-07-07 01:30:30",1040163,3.464,159.5,2.308,0.23,18.24,108.2997,20.53,21.5,34.67,0,110.9,13.17,21.35,121.5
"2009-07-07 01:31:00",1040164,3.355,156,1.708,0.124,18.25,108.3069,20.55,21.53,34.92,0,110.9,13.17,21.37,118.0
"2009-07-07 01:31:30",1040165,3.351,159.4,2.36,0.14,18.32,108.3278,20.6,21.55,34.94,0,110.9,13.17,21.42,121.4
"2009-07-07 01:32:00",1040166,3.517,158.2,1.314,0.11,18.24,108.3311,20.61,21.57,34.88,0,110.9,13.17,21.43,120.2
"2009-07-07 01:32:30",1040167,3.585,158,2.591,0.108,18.2,108.3335,20.62,21.58,35.12,0,110.9,13.17,21.44,120.0
"2009-07-07 01:33:00",1040168,3.475,158,2.132,0.103,18.27,108.3376,20.63,21.6,35.1,0,110.9,13.17,21.45,120.0
"2009-07-07 01:33:30",1040169,3.36,156.7,1.762,0.087,18.3,108.3446,20.64,21.61,34.98,0,110.9,13.17,21.47,118.7
"2009-07-07 01:34:00",1040170,3.281,158.3,1.877,0.105,18.39,108.3598,20.68,21.62,34.82,0,110.9,13.17,21.51,120.3
"2009-07-07 01:34:30",1040171,3.09,157.3,1.283,0.103,18.4,108.373,20.72,21.64,34.59,0,110.9,13.17,21.54,119.3
"2009-07-07 01:35:00",1040172,3.083,156.5,1.171,0.135,18.41,108.3754,20.72,21.65,34.3,0,110.9,13.17,21.55,118.5
"2009-07-07 01:35:30",1040173,3.041,158.9,2.266,0.146,18.35,108.3767,20.73,21.65,34.47,0,110.9,13.17,21.55,120.9
"2009-07-07 01:36:00",1040174,2.793,158.2,2.406,0.089,18.4,108.3739,20.72,21.7,34.28,0,110.9,13.17,21.54,120.2
"2009-07-07 01:36:30",1040175,2.742,153.9,1.917,0.07,18.5,108.3751,20.72,21.7,34.03,0,110.9,13.18,21.55,115.9
"2009-07-07 01:37:00",1040176,2.771,152.5,2.935,0.199,18.55,108.3775,20.73,21.7,33.6,0,110.9,13.18,21.55,114.5
"2009-07-07 01:37:30",1040177,2.934,154.5,1.604,0.129,18.39,108.3838,20.74,21.71,33.99,0,110.9,13.18,21.57,116.5
"2009-07-07 01:38:00",1040178,2.57,152,1.079,0.106,18.64,108.3915,20.76,21.74,33.83,0,110.9,13.18,21.59,114.0
"2009-07-07 01:38:30",1040179,2.484,152.3,0.966,0.064,18.7,108.4039,20.8,21.73,32.83,0,110.9,13.18,21.62,114.3
"2009-07-07 01:39:00",1040180,2.383,152.1,0.928,0.053,18.56,108.4159,20.83,21.75,32.78,0,110.9,13.18,21.65,114.1
"2009-07-07 01:39:30",1040181,2.31,154.5,1.812,0.082,18.65,108.4168,20.83,21.75,32.54,0,110.9,13.18,21.65,116.5
"2009-07-07 01:40:00",1040182,2.172,157.8,1.654,0.089,18.74,108.4171,20.83,21.77,32.31,0,110.9,13.18,21.65,119.8
"2009-07-07 01:40:30",1040183,2.212,159.4,1.004,0.038,18.76,108.4174,20.83,21.77,32.19,0,110.9,13.18,21.66,121.4
"2009-07-07 01:41:00",1040184,2.18,161.8,1.572,0.127,18.69,108.4183,20.83,21.8,32.37,0,110.9,13.18,21.66,123.8
"2009-07-07 01:41:30",1040185,2.149,164.3,3.681,0.084,18.82,108.4224,20.84,21.79,32.31,0,110.9,13.18,21.67,126.3
"2009-07-07 01:42:00",1040186,2.162,169.7,1.8,0.099,18.82,108.4286,20.86,21.82,32.15,0,110.9,13.18,21.68,131.7
"2009-07-07 01:42:30",1040187,2.147,168.6,1.909,0.171,18.85,108.4362,20.88,21.82,31.93,0,110.9,13.18,21.70,130.6
"2009-07-07 01:43:00",1040188,2.733,174.2,2.126,0.245,18.72,108.4469,20.91,21.83,32.47,0,110.9,13.18,21.73,136.2
"2009-07-07 01:43:30",1040189,2.892,175.3,2.034,0.113,18.71,108.4548,20.93,21.85,32.73,0,110.9,13.18,21.75,137.3
"2009-07-07 01:44:00",1040190,3.141,180.1,1.742,0.165,18.76,108.4557,20.93,21.86,32.67,0,110.9,13.18,21.75,142.1
"2009-07-07 01:44:30",1040191,2.825,183,2.045,0.135,18.85,108.4563,20.93,21.86,32.6,0,110.9,13.18,21.76,145.0
"2009-07-07 01:45:00",1040192,2.519,185.6,3.234,0.166,18.83,108.4563,20.93,21.87,32.52,0,110.9,13.18,21.76,147.6
"2009-07-07 01:45:30",1040193,2.432,185.1,4.192,0.158,18.83,108.4563,20.93,21.88,32.44,0,110.9,13.18,21.76,147.1
"2009-07-07 01:46:00",1040194,2.383,187.5,2.447,0.155,18.81,108.4563,20.93,21.89,32.3,0,110.9,13.18,21.76,149.5
"2009-07-07 01:46:30",1040195,2.391,189.2,1.656,0.089,18.73,108.4566,20.93,21.88,32.24,0,110.9,13.18,21.76,151.2
"2009-07-07 01:47:00",1040196,2.419,191.4,1.633,0.086,18.79,108.4563,20.93,21.88,32.22,0,110.9,13.18,21.76,153.4
"2009-07-07 01:47:30",1040197,2.262,192.1,2.081,0.084,18.79,108.4566,20.93,21.89,32.15,0,110.9,13.18,21.76,154.1